Tracking 29594 objects as of 20-Sep-2024
HD Live streaming from Space Station
objects crossing your sky now

FENGYUN 1C DEB

Track FENGYUN 1C DEB now!
10-day predictions


NORAD ID: 31327
Int'l Code: 1999-025BQF
Perigee: 524.6 km
Apogee: 709.6 km
Inclination: 98.9 °
Period: 96.9 minutes
Semi major axis: 6988 km
RCS: 0.0089 m2 (small)
Launch date: May 10, 1999
Source: People's Republic of China (PRC)
Launch site: Taiyaun Space Center, China (TSC)

Note: This is SATELLITE DEBRIS
Your satellite tracking list
Your tracking list is empty




NASA's NSSDC Master Catalog

Two Line Element Set (TLE):
1 31327U 99025BQF 24261.61268855  .00095609  00000-0  91942-2 0  9993
2 31327  98.9485 188.9556 0132336  33.1927 327.7500 14.86148152933599
Source of the keplerian elements: AFSPC